Terug naar catalogus

THORAD DELTA 1 DEB

ActiefLEO
NORAD 8162·DEBRIS·🇺🇸 United States

Gelanceerd Nov 15, 1974 vanaf Vandenberg Space Force Base

Loading…

Volgende Passages (komende 24 uur)

TLE

VersSource: Space-Track

Epoch: Sep 13, 2026, 13:13 UTC

1  8162U 74089AC  26256.55086005  .00001361  00000-0  86308-2 0  9993
2  8162 100.8541 117.0840 0166219  21.4480   6.6693 12.51036450330882

Volg THORAD DELTA 1 DEB in realtime met AllMySat

Download on the App Store